Find Starlink 37217

NORAD ID: 68335 Int'l Des: 2026-059 Owner: SPXS Country: US Constellation: starlink operational
LEOCIRCULAR

Live-Position

3D-Globus wird geladen...

Über Starlink 37217

Beschreibung wird geladen...

Nächste Überflüge

Passes for default location (London). Set your location on the main map for personalized predictions.

Höhenverlauf

Loading altitude history...

Zweizeiliger Elementsatz

1 68335U 26059Q 26127.22896143 .00055400 00000-0 99646-3 0 9991
2 68335 53.1582 74.5534 0001872 49.8767 310.2406 15.49326590 7162
Epoch: 7. Mai 2026 • Age: 7 hours

Aktueller Status

Höhe 424.2 km
Geschwindigkeit 7.66 km/s
Subsatellitenpunkt 53.29°N, 118.77°E
Startdatum 22. März 2026
Alter 0.1 years
Typ internet

Technische Details

Klassifizierung Payload
Masse 575.00 kg
Trockenmasse 530.00 kg
Gesamtmasse 575.00 kg
Länge 0.30 m
Durchmesser 4.10 m
Spannweite 29.00 m
Form Box + pan
Hersteller SPXS
Bus-Typ Starlink V2MO
Phasenstatus In Orbit
Besitzer/Staat SPXS/US

Most Searched